Regional Weather Roundup
Issued by NWS

Home | Current Version | Previous Version | Graphics & Text | Print | Product List | Glossary On
Versions: 1 2 3 4 5 6 7 8 9 10 11 12 13 14 15 16 17 18 19 20 21 22 23 24 25 26 27 28 29 30 31 32 33 34 35 36 37 38 39 40 41 42 43 44 45 46 47 48 49 50
988
ASUS43 KLOT 231009
RWRIL

ILLINOIS REGIONAL WEATHER ROUNDUP
NATIONAL WEATHER SERVICE CHICAGO/ROMEOVILLE IL
500 AM CDT MON OCT 23 2017

NOTE: "FAIR" INDICATES FEW OR NO CLOUDS BELOW 12,000 FEET WITH NO
SIGNIFICANT WEATHER AND/OR OBSTRUCTIONS TO VISIBILITY.

* THESE STATIONS ARE NOT UNDER NWS QUALITY CONTROL. THEY ALSO MAY NOT
  REPORT WEATHER SUCH AS PRECIPITATION OR FOG.

ILZ001-002-007-009-015-016-024-231100-
NORTHWEST ILLINOIS

CITY           SKY/WX    TMP DP  RH WIND       PRES   REMARKS
MOLINE         CLOUDY    47  45  93 CALM      29.93F FOG
STERLING*      CLOUDY    50  48  93 N6          N/A
SAVANNA*       FOG       45  45  99 NE3       29.93F VSB 1
$$

ILZ003-004-008-010-011-017-018-231100-
NORTH CENTRAL ILLINOIS

CITY           SKY/WX    TMP DP  RH WIND       PRES   REMARKS
ROCKFORD       CLOUDY    49  47  93 N6        29.96F
FREEPORT*      CLOUDY    44  44  99 CALM      29.96F FOG
ROCHELLE*      CLOUDY    48  47  96 N6        29.94F
DE KALB*       CLOUDY    49  48  97 N8        29.94F
PERU*          CLOUDY    49  46  88 N9        29.93F
$$

ILZ005-006-012>014-019>023-231100-
NORTHEAST ILLINOIS

CITY           SKY/WX    TMP DP  RH WIND       PRES   REMARKS
CHICAGO-OHARE  RAIN      51  49  92 N9        29.93F FOG
CHICAGO-MIDWAY RAIN      52  51  97 N10       29.91F
AURORA         LGT RAIN  51  50  96 N10       29.94F
LANSING*       RAIN      53  53 100 N10G17    29.90F
JOLIET*        LGT RAIN  52  52  99 N9        29.91F
WAUKEGAN       LGT RAIN  50  50 100 N3        29.94S FOG
DUPAGE AIRPORT LGT RAIN  50  50 100 N10       29.92F FOG
KANKAKEE*      HVY RAIN  52  51  97 N13       29.87F
WHEELING       LGT RAIN  51  51 100 N9        29.95S FOG
MORRIS*        LGT RAIN  51  50  95 N7        29.91F
ROMEOVILLE*    LGT RAIN  51  50  97 N10       29.91F
NORTHERLY ISL    N/A     53  50  89 NW13        N/A
$$

LMZ740>746-231100-
SOUTHERN LAKE MICHIGAN

STATION/POSITION SKY/WX   TEMP    WIND        PRES    VSBY  WAVE
                          AIR SEA DIR/SP/G                  HT/PER
                          (F)     (DEG/KT/KT) (MB)    (MI)  (FT/S)
SOUTHERN BUOY              54 60   10/ 16/ 17 1013.6          2/ 4
WILMETTE HARBOR            53 57  340/ 14/ 17   N/A           3/ 5
HARRISON CRIB              54     350/ 18/ 19   N/A
BURNHAM HARBOR             53     350/  9/ 14   N/A
CALUMET HARBOR             52     340/ 11/ 15 1012.3F
BURNS HARBOR               57      30/ 11/ 15 1013.2S
MICHIGAN CITY              56      20/ 13/ 15   N/A
MICHIGAN CITY 6N           56 58   10/ 14/ 16   N/A           4/ 6
ST. JOSEPH                 57 59   50/ 12/ 14 1012.7          3/ 6
$$

ILZ025>027-034>036-040-047-049-050-058-095>099-231100-
WEST-CENTRAL ILLINOIS

CITY           SKY/WX    TMP DP  RH WIND       PRES   REMARKS
QUINCY         MOCLDY    49  46  90 W5        29.94S
MACOMB*        CLOUDY    49  49  97 N5        29.95F
JACKSONVILLE*  CLOUDY    49  46  87 NW8       29.90R
PITTSFIELD*    CLOUDY    50  48  95 CALM      29.95R
$$

ILZ028>032-037-038-041>044-048-051>054-059>061-231100-
CENTRAL ILLINOIS

CITY           SKY/WX    TMP DP  RH WIND       PRES   REMARKS
PONTIAC        RAIN      51  51  99 N10       29.90F
BLOOMINGTON    LGT RAIN  50  49  96 N17       29.90F
DECATUR        LGT RAIN  51  51 100 N17       29.82F
PEORIA         CLOUDY    50  47  89 N6        29.91F
LACON*         CLOUDY    50  48  92 N6        29.91F
LINCOLN*       LGT RAIN  51  51  99 N9G17     29.89F
SPRINGFIELD    CLOUDY    52  50  93 N14       29.87F
TAYLORVILLE    CLOUDY    50  50  99 N16G22    29.85F
$$

ILZ033-039-045-046-055>057-062-063-231100-
EAST-CENTRAL ILLINOIS

CITY           SKY/WX    TMP DP  RH WIND       PRES   REMARKS
CHAMPAIGN      RAIN      53  51  93 N14G22    29.83F FOG
DANVILLE*      RAIN      55  55 100 NW10      29.79F
RANTOUL*       RAIN      54  53  98 N15       29.85F
MATTOON        LGT RAIN  53  53 100 N15       29.80F
PARIS*         LGT RAIN  59  59 100 NW8       29.80F
$$

ILZ079-100>102-231100-
SOUTHWEST ILLINOIS

CITY           SKY/WX    TMP DP  RH WIND       PRES   REMARKS
ALTON          CLOUDY    50  49  97 NW12G18   29.89F
BELLEVILLE     CLOUDY    52  48  87 NW14G20   29.90F
CAHOKIA*       CLOUDY    53  47  79 NW13      29.91F
SPARTA*        CLOUDY    51  50  97 W14       29.90F FOG
$$

ILZ064>066-069>071-074>076-080>082-084>086-088>090-092>094-231100-
SOUTH-CENTRAL ILLINOIS

CITY           SKY/WX    TMP DP  RH WIND       PRES   REMARKS
CARBONDALE     CLOUDY    52  52 100 NW8       29.89R FOG
CAIRO*         CLOUDY    52  52  99 NW9       29.90F FOG
EFFINGHAM*     CLOUDY    53  53 100 N7        29.81F
MARION         CLOUDY    53  53  97 W5        29.89R
MT. VERNON     LGT RAIN  53  52  96 W10       29.88R FOG
CENTRALIA*     CLOUDY    53  52  97 W12       29.85S
SALEM*         CLOUDY    54  51  90 N12       29.82F
METROPOLIS*    CLOUDY    54  53  95 W9        29.88F FOG
$$

ILZ067-068-072-073-078-083-087-091-231100-
SOUTHEAST ILLINOIS

CITY           SKY/WX    TMP DP  RH WIND       PRES   REMARKS
LAWRENCEVILLE  LGT RAIN  60  32  34 W12       29.80S
FLORA*         CLOUDY    55  53  93 N6        29.80R
FAIRFIELD*     CLOUDY    53  53 100 CALM      29.83R
HARRISBURG*    CLOUDY    54  53  96 N9        29.86S
ROBINSON*      LGT RAIN  64  63  99 SW13      29.79F
CARMI*         LGT RAIN  54  53  98 N12       29.78F
$$

ABBREVIATIONS USED IN REMARKS
   TC - TEMPERATURE IN CELSIUS
  WCI - WIND CHILL INDEX
   HX - HEAT INDEX
  VSB - VISIBILITY
$$





USA.gov is the U.S. government's official web portal to all federal, state and local government web resources and services.